TimeEEST,TemperatureF,Dew PointF,Humidity,Sea Level PressureIn,VisibilityMPH,Wind Direction,Wind SpeedMPH,Gust SpeedMPH,PrecipitationIn,Events,Conditions,WindDirDegrees,DateUTC
12:20 AM,75.2,59.0,57,30.01,-9999.0,NE,6.9,-,N/A,,Clear,50,2013-06-18 21:20:00
12:50 AM,75.2,57.2,53,30.01,-9999.0,NE,6.9,-,N/A,,Clear,40,2013-06-18 21:50:00
1:20 AM,77.0,57.2,50,30.01,-9999.0,Variable,5.8,-,N/A,,Clear,0,2013-06-18 22:20:00
1:50 AM,75.2,59.0,57,30.01,-9999.0,Variable,5.8,-,N/A,,Clear,0,2013-06-18 22:50:00
2:20 AM,69.8,60.8,73,30.01,-9999.0,North,8.1,-,N/A,,Clear,350,2013-06-18 23:20:00
2:50 AM,69.8,60.8,73,30.01,-9999.0,North,10.4,-,N/A,,Clear,350,2013-06-18 23:50:00
3:00 AM,70,61,65,30.01,6,North,10.4,,,,,350,2013-06-19 00:00:00
3:20 AM,69.8,62.6,78,30.01,-9999.0,North,9.2,-,N/A,,Clear,350,2013-06-19 00:20:00
3:50 AM,69.8,64.4,83,30.01,-9999.0,North,9.2,-,N/A,,Clear,350,2013-06-19 00:50:00
4:20 AM,71.6,66.2,83,30.01,-9999.0,North,9.2,-,N/A,,Clear,360,2013-06-19 01:20:00
4:50 AM,71.6,64.4,78,30.01,-9999.0,NNE,9.2,-,N/A,,Clear,20,2013-06-19 01:50:00
5:20 AM,71.6,66.2,83,30.01,-9999.0,NNE,6.9,-,N/A,,Clear,30,2013-06-19 02:20:00
5:50 AM,71.6,64.4,78,30.01,-9999.0,NE,8.1,-,N/A,,Clear,40,2013-06-19 02:50:00
6:20 AM,71.6,66.2,83,30.01,-9999.0,ENE,6.9,-,N/A,,Clear,60,2013-06-19 03:20:00
6:50 AM,71.6,64.4,78,30.01,6.2,ENE,5.8,-,N/A,,Partly Cloudy,60,2013-06-19 03:50:00
7:20 AM,73.4,64.4,73,30.01,6.2,ENE,6.9,-,N/A,,Partly Cloudy,70,2013-06-19 04:20:00
7:50 AM,75.2,62.6,65,30.01,6.2,NE,8.1,-,N/A,,Partly Cloudy,50,2013-06-19 04:50:00
8:20 AM,77.0,59.0,54,30.01,6.2,NE,9.2,-,N/A,,Partly Cloudy,40,2013-06-19 05:20:00
8:50 AM,77.0,57.2,50,30.01,6.2,NNE,10.4,-,N/A,,Scattered Clouds,30,2013-06-19 05:50:00
9:00 AM,76,58,44,30.02,6,NNE,10.4,,,,Partly Cloudy,30,2013-06-19 06:00:00
9:20 AM,77.0,55.4,47,30.01,6.2,NE,11.5,-,N/A,,Partly Cloudy,50,2013-06-19 06:20:00
9:50 AM,78.8,53.6,42,30.01,6.2,NE,10.4,-,N/A,,Partly Cloudy,50,2013-06-19 06:50:00
10:20 AM,80.6,55.4,42,30.01,-9999.0,NE,10.4,-,N/A,,Clear,40,2013-06-19 07:20:00
10:50 AM,80.6,55.4,42,30.01,-9999.0,ENE,10.4,-,N/A,,Clear,60,2013-06-19 07:50:00
11:20 AM,80.6,53.6,39,30.01,-9999.0,ENE,9.2,-,N/A,,Clear,60,2013-06-19 08:20:00
11:50 AM,82.4,55.4,39,30.01,-9999.0,NE,9.2,-,N/A,,Clear,40,2013-06-19 08:50:00
12:20 PM,82.4,55.4,39,30.01,-9999.0,NNE,10.4,-,N/A,,Clear,30,2013-06-19 09:20:00
12:50 PM,82.4,55.4,39,30.01,-9999.0,NE,11.5,-,N/A,,Clear,40,2013-06-19 09:50:00
1:20 PM,82.4,55.4,39,30.01,-9999.0,ENE,13.8,-,N/A,,Clear,60,2013-06-19 10:20:00
1:50 PM,82.4,55.4,39,30.01,-9999.0,NNE,13.8,-,N/A,,Clear,30,2013-06-19 10:50:00
2:20 PM,84.2,53.6,35,30.01,-9999.0,NE,15.0,-,N/A,,Clear,40,2013-06-19 11:20:00
2:50 PM,84.2,51.8,33,30.01,-9999.0,NE,16.1,-,N/A,,Clear,40,2013-06-19 11:50:00
3:00 PM,83,51,22,30.00,6,NE,16.1,,,,,40,2013-06-19 12:00:00
3:20 PM,84.2,51.8,33,30.01,-9999.0,ENE,17.3,-,N/A,,Clear,60,2013-06-19 12:20:00
3:50 PM,84.2,51.8,33,30.01,-9999.0,NE,15.0,26.5,N/A,,Clear,40,2013-06-19 12:50:00
4:20 PM,82.4,51.8,35,30.01,-9999.0,NNE,16.1,-,N/A,,Clear,30,2013-06-19 13:20:00
4:50 PM,82.4,48.2,30,29.98,-9999.0,NE,17.3,-,N/A,,Clear,40,2013-06-19 13:50:00
5:20 PM,82.4,50.0,32,29.98,-9999.0,NE,17.3,-,N/A,,Clear,50,2013-06-19 14:20:00
5:50 PM,82.4,48.2,30,29.98,-9999.0,ENE,16.1,-,N/A,,Clear,60,2013-06-19 14:50:00
6:20 PM,82.4,48.2,30,29.98,-9999.0,NE,13.8,-,N/A,,Clear,50,2013-06-19 15:20:00
6:50 PM,80.6,50.0,34,29.98,-9999.0,NE,19.6,-,N/A,,Clear,40,2013-06-19 15:50:00
7:20 PM,80.6,51.8,37,29.98,-9999.0,NNE,15.0,-,N/A,,Clear,30,2013-06-19 16:20:00
7:50 PM,78.8,51.8,39,30.01,-9999.0,NE,15.0,-,N/A,,Clear,40,2013-06-19 16:50:00
8:20 PM,78.8,53.6,42,30.01,-9999.0,NNE,13.8,-,N/A,,Clear,30,2013-06-19 17:20:00
8:50 PM,77.0,55.4,47,29.98,-9999.0,NE,10.4,-,N/A,,Clear,50,2013-06-19 17:50:00
9:00 PM,78,54,33,29.99,6,NE,10.4,,,,,50,2013-06-19 18:00:00
9:20 PM,77.0,55.4,47,30.01,-9999.0,NE,11.5,-,N/A,,Clear,50,2013-06-19 18:20:00
9:50 PM,77.0,55.4,47,30.01,-9999.0,NE,11.5,-,N/A,,Clear,50,2013-06-19 18:50:00
10:20 PM,75.2,55.4,50,30.01,-9999.0,NE,9.2,-,N/A,,Clear,50,2013-06-19 19:20:00
10:50 PM,77.0,55.4,47,30.01,-9999.0,ENE,10.4,-,N/A,,Clear,60,2013-06-19 19:50:00
11:20 PM,75.2,57.2,53,30.01,-9999.0,NE,9.2,-,N/A,,Clear,50,2013-06-19 20:20:00
11:50 PM,75.2,60.8,61,30.01,-9999.0,NE,10.4,-,N/A,,Clear,50,2013-06-19 20:50:00